SKYSAT-C10 (42988 NORAD) Tracking and Keplerian Element Data

This shows tracking and keplerian element data for the satellite.

Feedback or suggestion? Click here.




ElementValue
Catalog42988
NameSKYSAT-C10
Epoch Orbit7268
Epoch Day53.22621506
Epoch Year2019
RAAN168.3165
Inclination97.4182
Eccentricity0.0003338
Argument of Perigee301.7661
Mean Anonmoly126.1111
Mean Motion15.21600216
Decay Rate7.14E-06
L11 42988U 17068B 19053.22621506 .00000714 00000-0 34702-4 0 9997
L22 42988 97.4182 168.3165 0003338 301.7661 126.1111 15.21600216 72685

Live tracking and technical data element details for SKYSAT-C10 (NORAD 42988). SKYSAT-C10 can be tracked NOW for your location showing map with azimuth and elevation plus other details from your city location.

Track the satellite on the map from your city or location and see movement details for azimuth, elevation, latitude, longitude, range, height, and movement on the map or in text.







IsCatalogInMostPopularTable: catalog: 42988, numindb: 201
Update: records affected: 1



GetName: 42988 SKYSAT-C10

Hit Count: updated at: Fri, 22 Feb 2019 23:23:53 GMT